START_TIME,STEP,MOV.,H8,t_acc.,H43,t_acc.,M25,t_acc.,H9,t_acc.
1979-07-29 21:00:28.580 ,0,0,0.,12.0,0.,12.0,0.,12.0,0.,12.0
1979-07-29 21:00:40.580 ,0,0,0.,12.0,0.,12.0,0.,12.0,0.,12.0
1979-07-29 21:00:52.580 ,0,0,0.,12.0,0.,12.0,0.,12.0,0.,12.0
1979-07-29 21:01:04.580 ,0,0,0.,12.0,0.,12.0,0.,12.0,0.,12.0
1979-07-29 21:01:16.580 ,0,0,0.,12.0,0.,12.0,0.,12.0,0.,12.0
1979-07-29 21:01:28.580 ,0,0,0.,12.0,0.,12.0,0.,12.0,0.,12.0
1979-07-29 21:01:40.580 ,1,0,0.,12.0,0.,12.0,0.,12.0,0.,12.0
1979-07-29 21:01:52.580 ,1,0,0.,12.0,0.,12.0,0.,12.0,0.,12.0
1979-07-29 21:02:04.580 ,1,0,0.,12.0,0.,12.0,0.,12.0,0.,12.0
1979-07-29 21:02:16.580 ,1,0,0.,12.0,0.,12.0,0.,12.0,0.,12.0
1979-07-29 21:02:28.580 ,2,0,0.,12.0,0.,12.0,0.,12.0,0.,12.0
1979-07-29 21:02:40.580 ,2,0,0.,12.0,0.,12.0,0.,12.0,0.,12.0
1979-07-29 21:02:52.580 ,2,0,0.,12.0,0.,12.0,0.,12.0,0.,12.0
1979-07-29 21:03:04.580 ,2,0,0.,12.0,0.,12.0,0.,12.0,0.,12.0
1979-07-29 21:03:16.580 ,3,0,0.,12.0,0.,12.0,0.,12.0,0.,12.0
1979-07-29 21:03:28.580 ,3,0,0.,12.0,0.,12.0,0.,12.0,0.,12.0
1979-07-29 21:03:40.580 ,3,0,0.,12.0,0.,12.0,0.,12.0,0.,12.0
1979-07-29 21:03:52.580 ,3,0,0.,12.0,0.,12.0,0.,12.0,0.,12.0
1979-07-29 21:04:04.580 ,4,0,0.,12.0,0.,12.0,0.,12.0,0.,12.0
1979-07-29 21:04:16.580 ,4,0,0.,12.0,0.,12.0,0.,12.0,0.,12.0
1979-07-29 21:04:28.580 ,4,0,0.,12.0,0.,12.0,0.,12.0,0.,12.0
1979-07-29 21:04:40.580 ,4,0,0.,12.0,0.,12.0,0.,12.0,0.,12.0
1979-07-29 21:04:52.580 ,5,0,0.,12.0,0.,12.0,0.,12.0,0.,12.0
1979-07-29 21:05:04.580 ,5,0,0.,12.0,0.,12.0,0.,12.0,0.,12.0
1979-07-29 21:05:16.580 ,5,0,0.,12.0,0.,12.0,0.,12.0,0.,12.0
1979-07-29 21:05:28.580 ,5,0,0.,12.0,0.,12.0,0.,12.0,0.,12.0
1979-07-29 21:05:40.580 ,6,0,0.,12.0,0.,12.0,0.,12.0,0.,12.0
1979-07-29 21:05:52.580 ,6,0,0.,12.0,0.,12.0,0.,12.0,0.,12.0
1979-07-29 21:06:04.580 ,6,0,0.,12.0,0.,12.0,0.,12.0,0.,12.0
1979-07-29 21:06:16.580 ,6,0,0.,12.0,0.,12.0,0.,12.0,0.,12.0
1979-07-29 21:06:28.580 ,7,0,0.,12.0,0.,12.0,0.,12.0,0.,12.0
1979-07-29 21:06:40.580 ,7,0,0.,12.0,0.,12.0,0.,12.0,0.,12.0
1979-07-29 21:06:52.580 ,7,0,0.,12.0,0.,12.0,0.,12.0,0.,12.0
1979-07-29 21:07:04.580 ,7,0,0.,12.0,0.,12.0,0.,12.0,0.,12.0
1979-07-29 21:07:16.580 ,3,1,0.,12.0,0.,12.0,0.,12.0,0.,12.0
1979-07-29 21:07:28.580 ,3,1,0.,12.0,0.,12.0,0.,12.0,0.,12.0
1979-07-29 21:07:40.580 ,0,1,0.,12.0,0.,12.0,0.,12.0,0.,12.0
1979-07-29 21:07:52.580 ,0,1,0.,12.0,0.,12.0,0.,12.0,0.,12.0
1979-07-29 21:08:04.580 ,4,1,0.,12.0,0.,12.0,0.,12.0,0.,12.0
1979-07-29 21:08:16.580 ,4,1,0.,12.0,0.,12.0,0.,12.0,0.,12.0
1979-07-29 21:08:28.580 ,7,1,0.,12.0,0.,12.0,0.,12.0,0.,12.0
1979-07-29 21:08:40.580 ,7,1,0.,12.0,0.,12.0,0.,12.0,0.,12.0
1979-07-29 21:08:52.580 ,3,1,0.,12.0,0.,12.0,0.,12.0,0.,12.0
1979-07-29 21:09:04.580 ,3,1,0.,12.0,0.,12.0,0.,12.0,0.,12.0
1979-07-29 21:09:16.580 ,0,1,0.,12.0,0.,12.0,0.,12.0,0.,12.0
1979-07-29 21:09:28.580 ,0,1,0.,12.0,0.,12.0,0.,12.0,0.,12.0
1979-07-29 21:09:40.580 ,4,1,0.,12.0,0.,12.0,0.,12.0,0.,12.0
1979-07-29 21:09:52.580 ,4,1,0.,12.0,0.,12.0,0.,12.0,0.,12.0
1979-07-29 21:10:04.580 ,7,1,0.,12.0,0.,12.0,0.,12.0,0.,12.0
1979-07-29 21:10:16.580 ,7,1,0.,12.0,0.,12.0,0.,12.0,0.,12.0
1979-07-29 21:10:28.580 ,3,1,0.,12.0,0.,12.0,0.,12.0,0.,12.0
1979-07-29 21:10:40.580 ,3,1,0.,12.0,0.,12.0,0.,12.0,0.,12.0
1979-07-29 21:10:52.580 ,0,1,0.,12.0,0.,12.0,0.,12.0,0.,12.0
1979-07-29 21:11:04.580 ,0,1,0.,12.0,0.,12.0,0.,12.0,0.,12.0
1979-07-29 21:11:16.580 ,4,1,0.,12.0,0.,12.0,0.,12.0,0.,12.0
1979-07-29 21:11:28.580 ,4,1,0.,12.0,0.,12.0,0.,12.0,0.,12.0
1979-07-29 21:11:40.580 ,7,1,0.,12.0,0.,12.0,0.,12.0,0.,12.0
1979-07-29 21:11:52.580 ,7,1,0.,12.0,0.,12.0,0.,12.0,0.,12.0
1979-07-29 21:12:04.580 ,3,1,0.,12.0,0.,12.0,0.,12.0,0.,12.0
1979-07-29 21:12:16.580 ,3,1,0.,12.0,0.,12.0,0.,12.0,0.,12.0
1979-07-29 21:12:28.580 ,0,1,0.,12.0,0.,12.0,0.,12.0,0.,12.0
1979-07-29 21:12:40.580 ,0,1,0.,12.0,0.,12.0,0.,12.0,0.,12.0
1979-07-29 21:12:52.580 ,4,1,0.,12.0,0.,12.0,0.,12.0,0.,12.0
1979-07-29 21:13:04.580 ,4,1,0.,12.0,0.,12.0,0.,12.0,0.,12.0
1979-07-29 21:13:16.580 ,7,1,0.,12.0,0.,12.0,0.,12.0,0.,12.0
1979-07-29 21:13:28.580 ,7,1,0.,12.0,0.,12.0,0.,12.0,0.,12.0
1979-07-29 21:13:40.580 ,3,1,0.,12.0,0.,12.0,0.,12.0,0.,12.0
1979-07-29 21:13:52.580 ,3,1,0.,12.0,0.,12.0,0.,12.0,0.,12.0
1979-07-29 21:14:04.580 ,0,1,0.,12.0,0.,12.0,0.,12.0,0.,12.0
1979-07-29 21:14:16.580 ,0,1,0.,12.0,0.,12.0,0.,12.0,0.,12.0
1979-07-29 21:14:28.580 ,4,1,0.,12.0,0.,12.0,0.,12.0,0.,12.0
1979-07-29 21:14:40.580 ,4,1,0.,12.0,0.,12.0,0.,12.0,0.,12.0
1979-07-29 21:14:52.580 ,7,1,0.,12.0,0.,12.0,0.,12.0,0.,12.0
1979-07-29 21:15:04.580 ,7,1,0.,12.0,0.,12.0,0.,12.0,0.,12.0
1979-07-29 21:15:16.580 ,3,1,0.,12.0,0.,12.0,0.,12.0,0.,12.0
1979-07-29 21:15:28.580 ,3,1,0.,12.0,0.,12.0,0.,12.0,0.,12.0
1979-07-29 21:15:40.580 ,0,1,0.,12.0,0.,12.0,0.,12.0,0.,12.0
1979-07-29 21:15:52.580 ,0,1,0.,12.0,0.,12.0,0.,12.0,0.,12.0
1979-07-29 21:16:04.580 ,4,1,0.,12.0,0.,12.0,0.,12.0,0.,12.0
1979-07-29 21:16:16.580 ,4,1,0.,12.0,0.,12.0,1.,12.0,0.,12.0
1979-07-29 21:16:28.580 ,7,1,0.,12.0,0.,12.0,0.,12.0,0.,12.0
1979-07-29 21:16:40.580 ,7,1,0.,12.0,0.,12.0,0.,12.0,0.,12.0
1979-07-29 21:16:52.580 ,3,1,0.,12.0,0.,12.0,0.,12.0,0.,12.0
1979-07-29 21:17:04.580 ,3,1,0.,12.0,0.,12.0,0.,12.0,0.,12.0
1979-07-29 21:17:16.580 ,0,1,0.,12.0,0.,12.0,0.,12.0,0.,12.0
1979-07-29 21:17:28.580 ,0,1,0.,12.0,0.,12.0,0.,12.0,0.,12.0
1979-07-29 21:17:40.580 ,0,0,0.,12.0,0.,12.0,0.,12.0,0.,12.0
1979-07-29 21:17:52.580 ,0,0,0.,12.0,0.,12.0,0.,12.0,0.,12.0
1979-07-29 21:18:04.580 ,0,0,0.,12.0,0.,12.0,0.,12.0,0.,12.0
1979-07-29 21:18:16.580 ,0,0,0.,12.0,0.,12.0,0.,12.0,0.,12.0
1979-07-29 21:18:28.580 ,5,0,0.,12.0,0.,12.0,0.,12.0,0.,12.0
1979-07-29 21:18:40.580 ,5,0,0.,12.0,0.,12.0,0.,12.0,0.,12.0
1979-07-29 21:18:52.580 ,5,0,0.,12.0,0.,12.0,0.,12.0,0.,12.0
1979-07-29 21:19:04.580 ,5,0,0.,12.0,0.,12.0,0.,12.0,0.,12.0
1979-07-29 21:19:16.580 ,4,0,0.,12.0,0.,12.0,0.,12.0,0.,12.0
1979-07-29 21:19:28.580 ,4,0,0.,12.0,0.,12.0,0.,12.0,0.,12.0
1979-07-29 21:19:40.580 ,4,0,0.,12.0,0.,12.0,0.,12.0,0.,12.0
1979-07-29 21:19:52.580 ,4,0,0.,12.0,0.,12.0,0.,12.0,0.,12.0
1979-07-29 21:20:04.580 ,3,0,0.,12.0,0.,12.0,0.,12.0,0.,12.0
1979-07-29 21:20:16.580 ,3,0,0.,12.0,0.,12.0,0.,12.0,0.,12.0
1979-07-29 21:20:28.580 ,3,0,0.,12.0,0.,12.0,0.,12.0,0.,12.0
1979-07-29 21:20:40.580 ,3,0,0.,12.0,0.,12.0,0.,12.0,0.,12.0
1979-07-29 21:20:52.580 ,2,0,0.,12.0,0.,12.0,0.,12.0,0.,12.0
1979-07-29 21:21:04.580 ,2,0,0.,12.0,0.,12.0,0.,12.0,0.,12.0
1979-07-29 21:21:16.580 ,2,0,0.,12.0,0.,12.0,0.,12.0,0.,12.0
1979-07-29 21:21:28.580 ,2,0,0.,12.0,0.,12.0,0.,12.0,0.,12.0
1979-07-29 21:21:40.580 ,1,0,1.,12.0,0.,12.0,0.,12.0,0.,12.0
1979-07-29 21:21:52.580 ,1,0,0.,12.0,0.,12.0,0.,12.0,0.,12.0
1979-07-29 21:22:04.580 ,0,0,0.,12.0,0.,12.0,0.,12.0,0.,12.0
1979-07-29 21:22:16.580 ,0,0,0.,12.0,0.,12.0,0.,12.0,0.,12.0
1979-07-29 21:22:52.580 ,0,0,0.,12.0,0.,12.0,0.,12.0,0.,12.0
1979-07-29 21:23:04.580 ,0,0,0.,12.0,0.,12.0,0.,12.0,0.,12.0
1979-07-29 21:23:16.580 ,0,0,,0,,0,,0,,0
1979-07-29 21:23:28.580 ,0,0,0.,12.0,0.,12.0,0.,12.0,0.,12.0
1979-07-29 21:23:40.580 ,0,0,0.,12.0,0.,12.0,0.,12.0,0.,12.0
1979-07-29 21:23:52.580 ,0,0,0.,12.0,0.,12.0,0.,12.0,0.,12.0
1979-07-29 21:24:04.580 ,1,0,0.,12.0,0.,12.0,0.,12.0,0.,12.0
1979-07-29 21:24:16.580 ,1,0,0.,12.0,0.,12.0,0.,12.0,0.,12.0
1979-07-29 21:24:28.580 ,1,0,0.,12.0,0.,12.0,0.,12.0,0.,12.0
1979-07-29 21:24:40.580 ,1,0,0.,12.0,0.,12.0,0.,12.0,0.,12.0
1979-07-29 21:24:52.580 ,2,0,0.,12.0,0.,12.0,0.,12.0,0.,12.0
1979-07-29 21:25:04.580 ,2,0,0.,12.0,0.,12.0,0.,12.0,0.,12.0
1979-07-29 21:25:16.580 ,2,0,0.,12.0,0.,12.0,0.,12.0,0.,12.0
1979-07-29 21:25:28.580 ,2,0,0.,12.0,0.,12.0,0.,12.0,0.,12.0
1979-07-29 21:25:40.580 ,3,0,0.,12.0,0.,12.0,0.,12.0,0.,12.0
1979-07-29 21:25:52.580 ,3,0,0.,12.0,0.,12.0,0.,12.0,0.,12.0
1979-07-29 21:26:04.580 ,3,0,0.,12.0,0.,12.0,0.,12.0,0.,12.0
1979-07-29 21:26:16.580 ,3,0,0.,12.0,0.,12.0,0.,12.0,0.,12.0
1979-07-29 21:26:28.580 ,4,0,0.,12.0,0.,12.0,0.,12.0,0.,12.0
1979-07-29 21:26:40.580 ,4,0,0.,12.0,0.,12.0,0.,12.0,0.,12.0
1979-07-29 21:26:52.580 ,4,0,0.,12.0,0.,12.0,0.,12.0,0.,12.0
1979-07-29 21:27:04.580 ,4,0,0.,12.0,0.,12.0,0.,12.0,0.,12.0
1979-07-29 21:27:16.580 ,5,0,0.,12.0,0.,12.0,0.,12.0,0.,12.0
1979-07-29 21:27:28.580 ,5,0,0.,12.0,0.,12.0,0.,12.0,0.,12.0
1979-07-29 21:27:40.580 ,5,0,0.,12.0,0.,12.0,0.,12.0,0.,12.0
1979-07-29 21:27:52.580 ,5,0,0.,12.0,0.,12.0,0.,12.0,0.,12.0
1979-07-29 21:28:04.580 ,6,0,0.,12.0,0.,12.0,0.,12.0,0.,12.0
1979-07-29 21:28:16.580 ,6,0,0.,12.0,0.,12.0,0.,12.0,0.,12.0
1979-07-29 21:28:28.580 ,6,0,0.,12.0,0.,12.0,0.,12.0,0.,12.0
1979-07-29 21:28:40.580 ,6,0,0.,12.0,0.,12.0,0.,12.0,0.,12.0
1979-07-29 21:28:52.580 ,7,0,0.,12.0,0.,12.0,0.,12.0,0.,12.0
1979-07-29 21:29:04.580 ,7,0,0.,12.0,0.,12.0,0.,12.0,0.,12.0
1979-07-29 21:29:16.580 ,7,0,0.,12.0,0.,12.0,0.,12.0,0.,12.0
1979-07-29 21:29:28.580 ,7,0,0.,12.0,0.,12.0,0.,12.0,0.,12.0
1979-07-29 21:29:40.580 ,7,0,0.,12.0,0.,12.0,0.,12.0,0.,12.0
1979-07-29 21:29:52.580 ,7,0,0.,12.0,0.,12.0,0.,12.0,0.,12.0
1979-07-29 21:30:04.580 ,7,0,0.,12.0,0.,12.0,0.,12.0,0.,12.0
1979-07-29 21:30:16.580 ,7,0,0.,12.0,0.,12.0,0.,12.0,0.,12.0
1979-07-29 21:30:28.580 ,6,0,0.,12.0,0.,12.0,0.,12.0,0.,12.0
1979-07-29 21:30:40.580 ,6,0,0.,12.0,0.,12.0,0.,12.0,0.,12.0
1979-07-29 21:30:52.580 ,6,0,0.,12.0,0.,12.0,0.,12.0,0.,12.0
1979-07-29 21:31:04.580 ,6,0,0.,12.0,0.,12.0,0.,12.0,0.,12.0
1979-07-29 21:31:16.580 ,5,0,0.,12.0,0.,12.0,0.,12.0,0.,12.0
1979-07-29 21:31:28.580 ,5,0,0.,12.0,0.,12.0,0.,12.0,0.,12.0
1979-07-29 21:31:40.580 ,5,0,0.,12.0,0.,12.0,0.,12.0,0.,12.0
1979-07-29 21:31:52.580 ,5,0,0.,12.0,0.,12.0,0.,12.0,0.,12.0
1979-07-29 21:32:04.580 ,4,0,0.,12.0,0.,12.0,0.,12.0,0.,12.0
1979-07-29 21:32:16.580 ,4,0,0.,12.0,0.,12.0,0.,12.0,0.,12.0
1979-07-29 21:32:28.580 ,4,0,0.,12.0,0.,12.0,0.,12.0,0.,12.0
1979-07-29 21:32:40.580 ,4,0,0.,12.0,0.,12.0,0.,12.0,0.,12.0
1979-07-29 21:32:52.580 ,3,0,0.,12.0,0.,12.0,0.,12.0,0.,12.0
1979-07-29 21:33:04.580 ,3,0,0.,12.0,0.,12.0,0.,12.0,0.,12.0
1979-07-29 21:33:16.580 ,3,0,0.,12.0,0.,12.0,0.,12.0,0.,12.0
1979-07-29 21:33:28.580 ,3,0,0.,12.0,0.,12.0,0.,12.0,0.,12.0
1979-07-29 21:33:40.580 ,0,0,0.,12.0,0.,12.0,0.,12.0,0.,12.0
1979-07-29 21:33:52.580 ,0,0,,0,,0,,0,,0
1979-07-29 21:34:04.580 ,0,0,0.,12.0,0.,12.0,0.,12.0,0.,12.0
1979-07-29 21:34:16.580 ,0,0,0.,12.0,0.,12.0,0.,12.0,0.,12.0
1979-07-29 21:34:28.580 ,1,0,0.,12.0,0.,12.0,0.,12.0,0.,12.0
1979-07-29 21:34:40.580 ,1,0,0.,12.0,0.,12.0,0.,12.0,0.,12.0
1979-07-29 21:34:52.580 ,1,0,0.,12.0,0.,12.0,0.,12.0,0.,12.0
1979-07-29 21:35:04.580 ,1,0,0.,12.0,0.,12.0,0.,12.0,0.,12.0
1979-07-29 21:35:16.580 ,0,0,0.,12.0,0.,12.0,0.,12.0,0.,12.0
1979-07-29 21:35:28.580 ,0,0,0.,12.0,0.,12.0,0.,12.0,0.,12.0
1979-07-29 21:35:40.580 ,0,0,0.,12.0,0.,12.0,0.,12.0,0.,12.0
1979-07-29 21:35:52.580 ,0,0,0.,12.0,0.,12.0,0.,12.0,0.,12.0
1979-07-29 21:36:04.580 ,0,0,0.,12.0,0.,12.0,0.,12.0,0.,12.0
1979-07-29 21:36:16.580 ,0,0,0.,12.0,0.,12.0,0.,12.0,0.,12.0
1979-07-29 21:36:28.580 ,0,0,0.,12.0,0.,12.0,0.,12.0,0.,12.0
1979-07-29 21:36:40.580 ,0,0,0.,12.0,0.,12.0,0.,12.0,0.,12.0
1979-07-29 21:36:52.580 ,1,0,0.,12.0,0.,12.0,0.,12.0,0.,12.0
1979-07-29 21:37:04.580 ,1,0,0.,12.0,0.,12.0,0.,12.0,0.,12.0
1979-07-29 21:37:16.580 ,1,0,0.,12.0,0.,12.0,0.,12.0,0.,12.0
1979-07-29 21:37:28.580 ,1,0,0.,12.0,0.,12.0,0.,12.0,0.,12.0
1979-07-29 21:37:40.580 ,2,0,0.,12.0,0.,12.0,0.,12.0,0.,12.0
1979-07-29 21:37:52.580 ,2,0,0.,12.0,0.,12.0,0.,12.0,0.,12.0
1979-07-29 21:38:04.580 ,2,0,0.,12.0,0.,12.0,0.,12.0,0.,12.0
1979-07-29 21:38:16.580 ,2,0,0.,12.0,0.,12.0,0.,12.0,0.,12.0
1979-07-29 21:38:28.580 ,3,0,1.,12.0,0.,12.0,0.,12.0,0.,12.0
1979-07-29 21:38:40.580 ,3,0,0.,12.0,0.,12.0,0.,12.0,0.,12.0
1979-07-29 21:38:52.580 ,3,0,0.,12.0,0.,12.0,0.,12.0,0.,12.0
1979-07-29 21:39:04.580 ,3,0,0.,12.0,0.,12.0,0.,12.0,0.,12.0
1979-07-29 21:39:16.580 ,4,0,0.,12.0,0.,12.0,0.,12.0,0.,12.0
1979-07-29 21:39:28.580 ,4,0,0.,12.0,0.,12.0,0.,12.0,0.,12.0
1979-07-29 21:39:40.580 ,4,0,0.,12.0,0.,12.0,0.,12.0,0.,12.0
1979-07-29 21:39:52.580 ,4,0,0.,12.0,0.,12.0,0.,12.0,0.,12.0
1979-07-29 21:40:04.580 ,5,0,0.,12.0,0.,12.0,0.,12.0,0.,12.0
1979-07-29 21:40:16.580 ,5,0,0.,12.0,0.,12.0,0.,12.0,0.,12.0
1979-07-29 21:40:28.580 ,5,0,0.,12.0,0.,12.0,0.,12.0,0.,12.0
1979-07-29 21:40:40.580 ,5,0,0.,12.0,0.,12.0,0.,12.0,0.,12.0
1979-07-29 21:40:52.580 ,6,0,0.,12.0,0.,12.0,0.,12.0,0.,12.0
1979-07-29 21:41:04.580 ,6,0,0.,12.0,0.,12.0,0.,12.0,0.,12.0
1979-07-29 21:41:16.580 ,6,0,0.,12.0,0.,12.0,0.,12.0,0.,12.0
1979-07-29 21:41:28.580 ,6,0,0.,12.0,0.,12.0,0.,12.0,0.,12.0
1979-07-29 21:41:40.580 ,7,0,0.,12.0,0.,12.0,0.,12.0,0.,12.0
1979-07-29 21:41:52.580 ,7,0,0.,12.0,0.,12.0,0.,12.0,0.,12.0
1979-07-29 21:42:04.580 ,7,0,0.,12.0,0.,12.0,0.,12.0,0.,12.0
1979-07-29 21:42:16.580 ,7,0,0.,12.0,0.,12.0,0.,12.0,0.,12.0
1979-07-29 21:42:28.580 ,7,0,0.,12.0,0.,12.0,0.,12.0,0.,12.0
1979-07-29 21:42:40.580 ,7,0,0.,12.0,0.,12.0,0.,12.0,0.,12.0
1979-07-29 21:42:52.580 ,7,0,0.,12.0,0.,12.0,0.,12.0,0.,12.0
1979-07-29 21:43:04.580 ,7,0,0.,12.0,0.,12.0,0.,12.0,0.,12.0
1979-07-29 21:43:16.580 ,6,0,0.,12.0,0.,12.0,0.,12.0,0.,12.0
1979-07-29 21:43:28.580 ,6,0,0.,12.0,0.,12.0,0.,12.0,0.,12.0
1979-07-29 21:43:40.580 ,6,0,0.,12.0,0.,12.0,0.,12.0,0.,12.0
1979-07-29 21:43:52.580 ,6,0,0.,12.0,0.,12.0,0.,12.0,0.,12.0
1979-07-29 21:44:04.580 ,5,0,0.,12.0,0.,12.0,0.,12.0,0.,12.0
1979-07-29 21:44:16.580 ,5,0,0.,12.0,0.,12.0,0.,12.0,0.,12.0
1979-07-29 21:44:28.580 ,5,0,0.,12.0,0.,12.0,0.,12.0,0.,12.0
1979-07-29 21:44:40.580 ,5,0,0.,12.0,0.,12.0,0.,12.0,0.,12.0
1979-07-29 21:44:52.580 ,4,0,0.,12.0,0.,12.0,0.,12.0,0.,12.0
1979-07-29 21:45:04.580 ,4,0,0.,12.0,0.,12.0,0.,12.0,0.,12.0
1979-07-29 21:45:16.580 ,4,0,0.,12.0,0.,12.0,0.,12.0,0.,12.0
1979-07-29 21:45:28.580 ,4,0,0.,12.0,0.,12.0,0.,12.0,0.,12.0
1979-07-29 21:45:40.580 ,3,0,0.,12.0,0.,12.0,0.,12.0,0.,12.0
1979-07-29 21:45:52.580 ,3,0,0.,12.0,0.,12.0,0.,12.0,0.,12.0
1979-07-29 21:46:04.580 ,3,0,0.,12.0,0.,12.0,0.,12.0,0.,12.0
1979-07-29 21:46:16.580 ,3,0,0.,12.0,0.,12.0,0.,12.0,0.,12.0
1979-07-29 21:46:28.580 ,2,0,0.,12.0,0.,12.0,0.,12.0,0.,12.0
1979-07-29 21:46:40.580 ,2,0,1.,12.0,0.,12.0,0.,12.0,0.,12.0
1979-07-29 21:46:52.580 ,2,0,0.,12.0,0.,12.0,0.,12.0,0.,12.0
1979-07-29 21:47:04.580 ,2,0,0.,12.0,0.,12.0,0.,12.0,0.,12.0
1979-07-29 21:47:16.580 ,1,0,0.,12.0,0.,12.0,0.,12.0,0.,12.0
1979-07-29 21:47:28.580 ,1,0,0.,12.0,0.,12.0,0.,12.0,0.,12.0
1979-07-29 21:47:40.580 ,1,0,0.,12.0,0.,12.0,0.,12.0,0.,12.0
1979-07-29 21:47:52.580 ,1,0,0.,12.0,0.,12.0,0.,12.0,0.,12.0
1979-07-29 21:48:04.580 ,0,0,0.,12.0,0.,12.0,0.,12.0,0.,12.0
1979-07-29 21:48:16.580 ,0,0,0.,12.0,0.,12.0,0.,12.0,0.,12.0
1979-07-29 21:48:28.580 ,0,0,0.,12.0,0.,12.0,0.,12.0,0.,12.0
1979-07-29 21:48:40.580 ,0,0,0.,12.0,0.,12.0,0.,12.0,0.,12.0
1979-07-29 21:48:52.580 ,0,0,0.,12.0,0.,12.0,0.,12.0,0.,12.0
1979-07-29 21:49:04.580 ,0,0,0.,12.0,0.,12.0,0.,12.0,0.,12.0
1979-07-29 21:49:16.580 ,0,0,0.,12.0,0.,12.0,0.,12.0,0.,12.0
1979-07-29 21:49:28.580 ,0,0,0.,12.0,0.,12.0,0.,12.0,0.,12.0
1979-07-29 21:49:40.580 ,1,0,0.,12.0,0.,12.0,0.,12.0,0.,12.0
1979-07-29 21:49:52.580 ,1,0,0.,12.0,0.,12.0,0.,12.0,0.,12.0
1979-07-29 21:50:04.580 ,1,0,0.,12.0,0.,12.0,0.,12.0,0.,12.0
1979-07-29 21:50:16.580 ,1,0,0.,12.0,0.,12.0,0.,12.0,0.,12.0
1979-07-29 21:50:29.780 ,2,0,0.,12.0,0.,12.0,0.,12.0,0.,12.0
1979-07-29 21:50:41.780 ,2,0,0.,12.0,0.,12.0,0.,12.0,0.,12.0
1979-07-29 21:50:52.580 ,2,0,0.,12.0,0.,12.0,0.,12.0,0.,12.0
1979-07-29 21:51:04.580 ,2,0,1.,12.0,0.,12.0,0.,12.0,0.,12.0
1979-07-29 21:51:16.580 ,3,0,0.,12.0,0.,12.0,0.,12.0,0.,12.0
1979-07-29 21:51:28.580 ,3,0,0.,12.0,0.,12.0,0.,12.0,0.,12.0
1979-07-29 21:51:40.580 ,3,0,0.,12.0,0.,12.0,0.,12.0,0.,12.0
1979-07-29 21:51:52.580 ,3,0,0.,12.0,0.,12.0,0.,12.0,0.,12.0
1979-07-29 21:52:04.580 ,4,0,0.,12.0,0.,12.0,0.,12.0,0.,12.0
1979-07-29 21:52:16.580 ,4,0,0.,12.0,0.,12.0,0.,12.0,0.,12.0
1979-07-29 21:52:28.580 ,4,0,0.,12.0,0.,12.0,0.,12.0,0.,12.0
1979-07-29 21:52:40.580 ,4,0,0.,12.0,0.,12.0,0.,12.0,0.,12.0
1979-07-29 21:52:52.580 ,5,0,0.,12.0,0.,12.0,0.,12.0,0.,12.0
1979-07-29 21:53:04.580 ,5,0,0.,12.0,0.,12.0,0.,12.0,0.,12.0
1979-07-29 21:53:16.580 ,5,0,0.,12.0,0.,12.0,0.,12.0,0.,12.0
1979-07-29 21:53:28.580 ,5,0,0.,12.0,0.,12.0,0.,12.0,0.,12.0
1979-07-29 21:53:40.580 ,6,0,0.,12.0,0.,12.0,0.,12.0,0.,12.0
1979-07-29 21:53:52.580 ,6,0,0.,12.0,0.,12.0,0.,12.0,0.,12.0
1979-07-29 21:54:04.580 ,6,0,0.,12.0,0.,12.0,0.,12.0,0.,12.0
1979-07-29 21:54:16.580 ,6,0,0.,12.0,0.,12.0,0.,12.0,0.,12.0
1979-07-29 21:54:28.580 ,7,0,0.,12.0,0.,12.0,0.,12.0,0.,12.0
1979-07-29 21:54:40.580 ,7,0,0.,12.0,0.,12.0,0.,12.0,0.,12.0
1979-07-29 21:54:52.580 ,7,0,0.,12.0,0.,12.0,0.,12.0,0.,12.0
1979-07-29 21:55:04.580 ,7,0,0.,12.0,0.,12.0,0.,12.0,0.,12.0
1979-07-29 21:55:16.580 ,3,1,0.,12.0,0.,12.0,0.,12.0,0.,12.0
1979-07-29 21:55:28.580 ,3,1,0.,12.0,0.,12.0,0.,12.0,0.,12.0
1979-07-29 21:55:40.580 ,0,1,0.,12.0,0.,12.0,0.,12.0,0.,12.0
1979-07-29 21:55:52.580 ,0,1,0.,12.0,0.,12.0,0.,12.0,0.,12.0
1979-07-29 21:56:04.580 ,4,1,0.,12.0,0.,12.0,0.,12.0,0.,12.0
1979-07-29 21:56:16.580 ,4,1,0.,12.0,0.,12.0,0.,12.0,0.,12.0
1979-07-29 21:56:28.580 ,7,1,0.,12.0,0.,12.0,0.,12.0,0.,12.0
1979-07-29 21:56:40.580 ,7,1,0.,12.0,0.,12.0,0.,12.0,0.,12.0
1979-07-29 21:56:52.580 ,3,1,0.,12.0,0.,12.0,0.,12.0,0.,12.0
1979-07-29 21:57:04.580 ,3,1,0.,12.0,0.,12.0,0.,12.0,0.,12.0
1979-07-29 21:57:16.580 ,0,1,0.,12.0,0.,12.0,0.,12.0,0.,12.0
1979-07-29 21:57:28.580 ,0,1,0.,12.0,0.,12.0,0.,12.0,0.,12.0
1979-07-29 21:57:40.580 ,4,1,0.,12.0,0.,12.0,0.,12.0,0.,12.0
1979-07-29 21:57:52.580 ,4,1,0.,12.0,0.,12.0,0.,12.0,0.,12.0
1979-07-29 21:58:04.580 ,7,1,0.,12.0,0.,12.0,0.,12.0,0.,12.0
1979-07-29 21:58:16.580 ,7,1,0.,12.0,0.,12.0,0.,12.0,0.,12.0
1979-07-29 21:58:28.580 ,3,1,0.,12.0,0.,12.0,0.,12.0,0.,12.0
1979-07-29 21:58:40.580 ,3,1,0.,12.0,0.,12.0,0.,12.0,0.,12.0
1979-07-29 21:58:52.580 ,0,1,0.,12.0,0.,12.0,0.,12.0,0.,12.0
1979-07-29 21:59:04.580 ,0,1,0.,12.0,0.,12.0,0.,12.0,0.,12.0
1979-07-29 21:59:16.580 ,4,1,0.,12.0,0.,12.0,0.,12.0,0.,12.0
1979-07-29 21:59:28.580 ,4,1,0.,12.0,0.,12.0,0.,12.0,0.,12.0
1979-07-29 21:59:40.580 ,7,1,0.,12.0,0.,12.0,0.,12.0,0.,12.0
1979-07-29 21:59:52.580 ,7,1,0.,12.0,0.,12.0,0.,12.0,0.,12.0
1979-07-29 22:00:04.580 ,3,1,0.,12.0,0.,12.0,0.,12.0,0.,12.0
1979-07-29 22:00:16.580 ,3,1,0.,12.0,0.,12.0,0.,12.0,0.,12.0
1979-07-29 22:00:28.580 ,0,1,0.,12.0,0.,12.0,0.,12.0,0.,12.0
1979-07-29 22:00:40.580 ,0,1,0.,12.0,0.,12.0,0.,12.0,0.,12.0
1979-07-29 22:00:52.580 ,4,1,0.,12.0,0.,12.0,0.,12.0,0.,12.0
1979-07-29 22:01:04.580 ,4,1,0.,12.0,0.,12.0,0.,12.0,0.,12.0
1979-07-29 22:01:16.580 ,7,1,0.,12.0,0.,12.0,0.,12.0,0.,12.0
1979-07-29 22:01:28.580 ,7,1,0.,12.0,0.,12.0,0.,12.0,0.,12.0
1979-07-29 22:01:40.580 ,3,1,0.,12.0,0.,12.0,0.,12.0,0.,12.0
1979-07-29 22:01:52.580 ,3,1,0.,12.0,0.,12.0,0.,12.0,0.,12.0
1979-07-29 22:02:04.580 ,0,1,0.,12.0,0.,12.0,0.,12.0,0.,12.0
1979-07-29 22:02:16.580 ,0,1,0.,12.0,0.,12.0,0.,12.0,0.,12.0
1979-07-29 22:02:28.580 ,4,1,0.,12.0,0.,12.0,0.,12.0,0.,12.0
1979-07-29 22:02:40.580 ,4,1,0.,12.0,0.,12.0,0.,12.0,0.,12.0
1979-07-29 22:02:52.580 ,7,1,0.,12.0,0.,12.0,0.,12.0,0.,12.0
1979-07-29 22:03:04.580 ,7,1,0.,12.0,0.,12.0,0.,12.0,0.,12.0
1979-07-29 22:03:16.580 ,3,1,0.,12.0,0.,12.0,0.,12.0,0.,12.0
1979-07-29 22:03:28.580 ,3,1,0.,12.0,0.,12.0,0.,12.0,0.,12.0
1979-07-29 22:03:40.580 ,0,1,0.,12.0,0.,12.0,0.,12.0,0.,12.0
1979-07-29 22:03:52.580 ,0,1,0.,12.0,0.,12.0,0.,12.0,0.,12.0
1979-07-29 22:04:04.580 ,4,1,0.,12.0,0.,12.0,0.,12.0,0.,12.0
1979-07-29 22:04:16.580 ,4,1,0.,12.0,0.,12.0,0.,12.0,0.,12.0
1979-07-29 22:04:28.580 ,7,1,0.,12.0,0.,12.0,0.,12.0,0.,12.0
1979-07-29 22:04:40.580 ,7,1,0.,12.0,0.,12.0,0.,12.0,0.,12.0
1979-07-29 22:04:52.580 ,3,1,0.,12.0,0.,12.0,0.,12.0,0.,12.0
1979-07-29 22:05:04.580 ,3,1,0.,12.0,0.,12.0,0.,12.0,0.,12.0
1979-07-29 22:05:16.580 ,0,1,0.,12.0,0.,12.0,0.,12.0,0.,12.0
1979-07-29 22:05:28.580 ,0,1,0.,12.0,0.,12.0,0.,12.0,0.,12.0
1979-07-29 22:05:40.580 ,0,0,0.,12.0,0.,12.0,0.,12.0,0.,12.0
1979-07-29 22:05:52.580 ,0,0,0.,12.0,0.,12.0,0.,12.0,0.,12.0
1979-07-29 22:06:04.580 ,0,0,0.,12.0,0.,12.0,0.,12.0,0.,12.0
1979-07-29 22:06:16.580 ,0,0,0.,12.0,0.,12.0,0.,12.0,0.,12.0
1979-07-29 22:06:28.580 ,5,0,0.,12.0,0.,12.0,0.,12.0,0.,12.0
1979-07-29 22:06:40.580 ,5,0,0.,12.0,0.,12.0,0.,12.0,0.,12.0
1979-07-29 22:06:52.580 ,5,0,0.,12.0,0.,12.0,0.,12.0,0.,12.0
1979-07-29 22:07:04.580 ,5,0,0.,12.0,0.,12.0,0.,12.0,0.,12.0
1979-07-29 22:07:16.580 ,4,0,0.,12.0,0.,12.0,0.,12.0,0.,12.0
1979-07-29 22:07:28.580 ,4,0,0.,12.0,0.,12.0,0.,12.0,0.,12.0
1979-07-29 22:07:40.580 ,4,0,0.,12.0,0.,12.0,0.,12.0,0.,12.0
1979-07-29 22:07:52.580 ,4,0,0.,12.0,0.,12.0,0.,12.0,0.,12.0
1979-07-29 22:08:04.580 ,3,0,0.,12.0,0.,12.0,0.,12.0,0.,12.0
1979-07-29 22:08:16.580 ,3,0,0.,12.0,0.,12.0,0.,12.0,0.,12.0
1979-07-29 22:08:28.580 ,3,0,0.,12.0,0.,12.0,0.,12.0,0.,12.0
1979-07-29 22:08:40.580 ,3,0,0.,12.0,0.,12.0,0.,12.0,0.,12.0
1979-07-29 22:08:52.580 ,2,0,0.,12.0,0.,12.0,0.,12.0,0.,12.0
1979-07-29 22:09:04.580 ,2,0,0.,12.0,0.,12.0,0.,12.0,0.,12.0
1979-07-29 22:09:16.580 ,2,0,0.,12.0,0.,12.0,0.,12.0,0.,12.0
1979-07-29 22:09:28.580 ,2,0,0.,12.0,0.,12.0,0.,12.0,0.,12.0
1979-07-29 22:09:40.580 ,1,0,0.,12.0,0.,12.0,0.,12.0,0.,12.0
1979-07-29 22:09:52.580 ,1,0,0.,12.0,0.,12.0,0.,12.0,0.,12.0
1979-07-29 22:10:04.580 ,1,0,0.,12.0,0.,12.0,0.,12.0,0.,12.0
1979-07-29 22:10:16.580 ,1,0,0.,12.0,0.,12.0,0.,12.0,0.,12.0
1979-07-29 22:10:28.580 ,0,0,0.,12.0,0.,12.0,0.,12.0,0.,12.0
1979-07-29 22:10:40.580 ,0,0,0.,12.0,0.,12.0,0.,12.0,0.,12.0
1979-07-29 22:10:52.580 ,0,0,0.,12.0,0.,12.0,0.,12.0,0.,12.0
1979-07-29 22:11:04.580 ,0,0,0.,12.0,0.,12.0,0.,12.0,0.,12.0
1979-07-29 22:11:16.580 ,0,0,0.,12.0,0.,12.0,0.,12.0,0.,12.0
1979-07-29 22:11:28.580 ,0,0,0.,12.0,0.,12.0,0.,12.0,0.,12.0
1979-07-29 22:11:40.580 ,0,0,0.,12.0,0.,12.0,0.,12.0,0.,12.0
1979-07-29 22:11:52.580 ,0,0,0.,12.0,0.,12.0,0.,12.0,0.,12.0
1979-07-29 22:12:04.580 ,1,0,0.,12.0,0.,12.0,0.,12.0,0.,12.0
1979-07-29 22:12:16.580 ,1,0,0.,12.0,0.,12.0,0.,12.0,0.,12.0
1979-07-29 22:12:28.580 ,1,0,0.,12.0,0.,12.0,0.,12.0,0.,12.0
1979-07-29 22:12:40.580 ,1,0,0.,12.0,0.,12.0,0.,12.0,0.,12.0
1979-07-29 22:12:52.580 ,2,0,0.,12.0,0.,12.0,0.,12.0,0.,12.0
1979-07-29 22:13:04.580 ,2,0,0.,12.0,0.,12.0,0.,12.0,0.,12.0
1979-07-29 22:13:16.580 ,2,0,0.,12.0,0.,12.0,0.,12.0,0.,12.0
1979-07-29 22:13:28.580 ,2,0,0.,12.0,0.,12.0,0.,12.0,0.,12.0
1979-07-29 22:13:40.580 ,3,0,0.,12.0,0.,12.0,0.,12.0,0.,12.0
1979-07-29 22:13:52.580 ,3,0,0.,12.0,0.,12.0,0.,12.0,0.,12.0
1979-07-29 22:14:04.580 ,3,0,0.,12.0,0.,12.0,0.,12.0,0.,12.0
1979-07-29 22:14:16.580 ,3,0,0.,12.0,0.,12.0,0.,12.0,0.,12.0
1979-07-29 22:14:28.580 ,4,0,0.,12.0,0.,12.0,0.,12.0,0.,12.0
1979-07-29 22:14:40.580 ,4,0,0.,12.0,0.,12.0,0.,12.0,0.,12.0
1979-07-29 22:14:52.580 ,4,0,0.,12.0,0.,12.0,0.,12.0,0.,12.0
1979-07-29 22:15:04.580 ,4,0,0.,12.0,0.,12.0,0.,12.0,0.,12.0
1979-07-29 22:15:16.580 ,5,0,0.,12.0,0.,12.0,0.,12.0,0.,12.0
1979-07-29 22:15:28.580 ,5,0,0.,12.0,0.,12.0,0.,12.0,0.,12.0
1979-07-29 22:15:40.580 ,5,0,0.,12.0,0.,12.0,0.,12.0,0.,12.0
1979-07-29 22:15:52.580 ,5,0,0.,12.0,0.,12.0,0.,12.0,0.,12.0
1979-07-29 22:16:04.580 ,6,0,0.,12.0,0.,12.0,0.,12.0,0.,12.0
1979-07-29 22:16:16.580 ,6,0,0.,12.0,0.,12.0,0.,12.0,0.,12.0
1979-07-29 22:16:28.580 ,6,0,0.,12.0,0.,12.0,0.,12.0,0.,12.0
1979-07-29 22:16:40.580 ,6,0,0.,12.0,0.,12.0,0.,12.0,0.,12.0
1979-07-29 22:16:52.580 ,7,0,0.,12.0,0.,12.0,0.,12.0,0.,12.0
1979-07-29 22:17:04.580 ,7,0,0.,12.0,0.,12.0,0.,12.0,0.,12.0
1979-07-29 22:17:16.580 ,7,0,0.,12.0,0.,12.0,0.,12.0,0.,12.0
1979-07-29 22:17:28.580 ,7,0,0.,12.0,0.,12.0,0.,12.0,0.,12.0
1979-07-29 22:17:40.580 ,7,0,0.,12.0,0.,12.0,0.,12.0,0.,12.0
1979-07-29 22:17:52.580 ,7,0,0.,12.0,0.,12.0,0.,12.0,0.,12.0